Terminal Aerodrome Forecast
Issued by NWS Los Angeles, CA

Home | Current Version | Previous Version | Text Only | Print | Product List | Glossary On
Versions: 1 2 3 4 5 6 7 8 9 10 11 12 13 14 15 16 17 18 19 20 21 22 23 24 25 26
000
FTUS46 KLOX 250549
TAFSMX
TAF
KSMX 250549Z 2506/2606 VRB03KT P6SM OVC007
     FM251000 VRB03KT 4SM BR OVC003
     FM251600 VRB04KT 6SM BR BKN006
     FM252000 30008KT P6SM SCT008
     FM260400 VRB03KT P6SM OVC007=

USA.gov is the U.S. government's official web portal to all federal, state and local government web resources and services.